TimeCDT,TemperatureF,Dew PointF,Humidity,Sea Level PressureIn,VisibilityMPH,Wind Direction,Wind SpeedMPH,Gust SpeedMPH,PrecipitationIn,Events,Conditions,WindDirDegrees,DateUTC
12:53 AM,78.1,75.0,90,30.09,10.0,Calm,Calm,-,N/A,,Clear,0,2013-08-12 05:53:00
1:53 AM,78.1,75.0,90,30.08,10.0,SSE,3.5,-,N/A,,Clear,150,2013-08-12 06:53:00
2:53 AM,78.1,75.0,90,30.07,10.0,ESE,3.5,-,N/A,,Clear,120,2013-08-12 07:53:00
3:53 AM,78.1,75.0,90,30.06,10.0,Calm,Calm,-,N/A,,Clear,0,2013-08-12 08:53:00
4:53 AM,77.0,75.0,94,30.07,10.0,Calm,Calm,-,N/A,,Clear,0,2013-08-12 09:53:00
5:53 AM,77.0,75.0,94,30.07,10.0,Calm,Calm,-,N/A,,Clear,0,2013-08-12 10:53:00
6:53 AM,77.0,75.0,94,30.08,10.0,Calm,Calm,-,N/A,,Clear,0,2013-08-12 11:53:00
7:53 AM,80.1,75.9,87,30.09,9.0,ENE,3.5,-,N/A,,Clear,60,2013-08-12 12:53:00
8:53 AM,84.9,77.0,77,30.11,10.0,Calm,Calm,-,N/A,,Clear,0,2013-08-12 13:53:00
9:53 AM,86.0,75.9,72,30.11,10.0,SSW,3.5,-,N/A,,Scattered Clouds,210,2013-08-12 14:53:00
10:05 AM,87.8,75.2,66,30.08,10.0,SW,8.1,-,N/A,Thunderstorm,Mostly Cloudy,230,2013-08-12 15:05:00
10:20 AM,87.8,75.2,66,30.08,10.0,SSW,5.8,-,N/A,,Scattered Clouds,200,2013-08-12 15:20:00
10:53 AM,87.1,77.0,72,30.11,10.0,SW,4.6,-,N/A,,Partly Cloudy,220,2013-08-12 15:53:00
11:16 AM,89.6,73.4,59,30.09,10.0,NW,3.5,-,N/A,Thunderstorm,Scattered Clouds,310,2013-08-12 16:16:00
11:53 AM,88.0,73.0,61,30.12,10.0,SW,6.9,-,0.00,Thunderstorm,Thunderstorm,220,2013-08-12 16:53:00
12:23 PM,89.6,75.2,62,30.08,10.0,NE,8.1,-,N/A,,Clear,40,2013-08-12 17:23:00
12:53 PM,89.1,73.9,61,30.10,10.0,Calm,Calm,-,N/A,,Scattered Clouds,0,2013-08-12 17:53:00
1:53 PM,87.1,75.0,67,30.09,10.0,ESE,10.4,-,N/A,,Clear,110,2013-08-12 18:53:00
2:15 PM,87.8,75.2,66,30.07,10.0,East,8.1,-,N/A,Thunderstorm,Thunderstorm,80,2013-08-12 19:15:00
2:53 PM,86.0,75.9,72,30.08,10.0,Calm,Calm,-,N/A,Thunderstorm,Thunderstorm,0,2013-08-12 19:53:00
3:02 PM,86.0,75.2,70,30.05,10.0,Variable,4.6,-,N/A,,Partly Cloudy,0,2013-08-12 20:02:00
3:53 PM,88.0,77.0,70,30.05,10.0,Variable,5.8,-,N/A,,Partly Cloudy,0,2013-08-12 20:53:00
4:53 PM,90.0,75.0,61,30.04,10.0,SSW,9.2,-,N/A,,Clear,200,2013-08-12 21:53:00
5:53 PM,90.0,75.0,61,30.02,10.0,SSW,9.2,-,N/A,,Clear,210,2013-08-12 22:53:00
6:53 PM,88.0,73.9,63,30.01,10.0,SSW,8.1,-,N/A,,Clear,200,2013-08-12 23:53:00
7:53 PM,84.9,75.9,74,30.04,10.0,South,4.6,-,N/A,,Clear,180,2013-08-13 00:53:00
8:53 PM,82.0,77.0,85,30.05,10.0,South,3.5,-,N/A,,Clear,170,2013-08-13 01:53:00
9:53 PM,81.0,77.0,88,30.05,10.0,Calm,Calm,-,N/A,,Clear,0,2013-08-13 02:53:00
10:53 PM,80.1,77.0,90,30.05,10.0,Calm,Calm,-,N/A,,Clear,0,2013-08-13 03:53:00
11:53 PM,79.0,75.9,90,30.05,10.0,Calm,Calm,-,N/A,,Clear,0,2013-08-13 04:53:00